EW0397 Weather Reports


time (UTC)temp
C
wind
direction
speed
KPH
gust
KPH
rain 1hr
cm
rain 24hr
cm
rain mn
cm
humidity
%
barometer
mb
20260505161503 13 59 0.0 0.0 0.00 0.00 0.00 100 1004.2
20260505153002 13 58 0.0 0.0 0.00 0.00 0.00 100 1003.2
20260505151501 13 275 0.0 0.0 0.00 0.00 0.00 100 1003.0
20260505140114 13 275 0.0 0.0 0.00 0.00 0.00 99 1004.0
20260505124607 13 264 0.0 0.0 0.00 0.00 0.00 98 1004.1
20260505123057 13 309 0.0 0.0 0.00 0.00 0.00 96 1004.2
20260505121559 15 206 0.0 0.0 0.00 0.00 0.00 94 1004.2
20260505120056 18 299 0.0 0.0 0.00 0.00 0.00 91 1003.6
20260505114559 18 280 0.0 0.0 0.00 0.00 0.00 88 1002.6
20260505113113 19 280 0.0 0.0 0.00 0.00 0.00 87 1002.6
20260505111553 19 280 0.0 0.0 0.00 0.00 0.00 85 1002.4
20260505101551 20 345 0.0 0.0 0.00 0.00 0.00 84 1004.0
20260505100040 19 210 0.0 0.0 0.00 0.00 0.00 86 1004.4
20260505094540 19 44 0.0 0.0 0.00 0.00 0.00 88 1004.6
20260505093033 18 131 0.0 0.0 0.00 0.00 0.00 88 1004.9
20260505091534 18 38 0.0 0.0 0.00 0.00 0.00 90 1005.3
20260505090026 18 125 0.0 0.0 0.00 0.00 0.00 93 1005.5
20260505084524 17 32 0.0 0.0 0.00 0.00 0.00 95 1006.0
20260505083022 16 254 0.0 0.0 0.00 0.00 0.00 98 1006.4
20260505081515 16 94 0.0 0.0 0.00 0.00 0.00 99 1006.5
20260505080013 16 177 0.0 0.0 0.00 0.00 0.00 100 1006.7
20260505074510 15 67 0.0 0.0 0.00 0.00 0.00 100 1006.9
20260505073006 15 69 0.0 0.0 0.00 0.00 0.00 100 1007.3
20260505071513 15 48 0.0 0.0 0.00 0.00 0.00 100 1007.4
20260505070002 14 41 0.0 0.0 0.00 0.00 0.00 100 1007.7
20260505064506 14 41 0.0 0.0 0.00 0.00 0.00 100 1008.0
20260505063001 14 41 0.0 0.0 0.00 0.00 0.00 100 1007.9
20260505061559 13 41 0.0 0.0 0.00 0.00 0.00 100 1007.8
20260505060058 13 70 0.0 0.0 0.00 0.00 0.00 100 1007.8
20260505054558 13 76 0.0 0.0 0.00 0.00 0.00 100 1007.8
20260505053057 13 77 0.0 0.0 0.00 0.00 0.00 100 1007.7
20260505051604 12 77 0.0 0.0 0.00 0.00 0.00 100 1007.9
20260505041549 12 77 0.0 0.0 0.00 0.00 0.00 100 1008.2
20260505040047 12 77 0.0 0.0 0.00 0.00 0.00 100 1008.2
20260505034549 12 77 0.0 0.0 0.00 0.00 0.00 99 1008.4
20260505033048 12 77 0.0 0.0 0.00 0.00 0.00 99 1008.0
20260505031552 13 77 0.0 0.0 0.00 0.00 0.00 99 1007.9
20260505030043 13 77 0.0 0.0 0.00 0.00 0.00 99 1008.0
20260505024543 13 77 0.0 0.0 0.00 0.00 0.00 99 1008.1
20260505023041 13 77 0.0 0.0 0.00 0.00 0.00 99 1008.2
20260505021541 13 274 0.0 0.0 0.00 0.00 0.00 99 1008.3
20260505020039 13 278 0.0 0.0 0.00 0.00 0.00 99 1009.0
20260505014540 13 19 0.0 0.0 0.00 0.00 0.00 98 1009.5
20260505013056 13 177 0.0 0.0 0.00 0.00 0.00 98 1009.8
20260505011536 13 311 0.0 0.0 0.00 0.00 0.00 97 1010.0
20260505010034 14 267 0.0 0.0 0.00 0.00 0.00 95 1010.1
20260505004531 14 233 0.0 0.0 0.00 0.00 0.00 95 1009.8
20260505003033 14 242 0.0 0.0 0.00 0.00 0.00 95 1008.3
20260505001529 14 242 0.0 0.0 0.00 0.00 0.00 95 1008.4
20260505000031 14 242 0.0 0.0 0.00 0.00 0.00 94 1008.4
20260504234526 14 242 0.0 0.0 0.00 0.00 0.00 94 1008.4
20260504233025 14 242 0.0 0.0 0.00 0.00 0.00 94 1008.7
20260504231524 14 242 0.0 0.0 0.00 0.00 0.00 94 1008.6
20260504230023 14 242 0.0 0.0 0.00 0.00 0.00 94 1008.7
20260504224521 14 242 0.0 0.0 0.00 0.00 0.00 94 1008.8
20260504223020 14 242 0.0 0.0 0.00 0.00 0.00 93 1008.8
20260504221517 14 242 0.0 0.0 0.00 0.00 0.00 93 1009.3
20260504220018 15 242 0.0 0.0 0.00 0.00 0.00 92 1009.6
20260504214520 15 242 0.0 0.0 0.00 0.00 0.00 91 1009.7
20260504213013 15 242 0.0 0.0 0.00 0.00 0.00 91 1009.8
20260504211523 15 242 0.0 0.0 0.00 0.00 0.00 91 1009.9
20260504210010 15 242 0.0 0.0 0.00 0.00 0.00 91 1010.1
20260504204516 15 242 0.0 0.0 0.00 0.00 0.00 91 1010.3
20260504203011 15 242 0.0 0.0 0.00 0.00 0.00 91 1010.5
20260504201509 15 242 0.0 0.0 0.00 0.00 0.00 92 1010.7
20260504200008 16 242 0.0 0.0 0.00 0.00 0.00 91 1010.8
20260504194508 16 242 0.0 0.0 0.00 0.00 0.00 90 1010.8
20260504193007 16 242 0.0 0.0 0.00 0.00 0.00 90 1010.7
20260504191507 16 242 0.0 0.0 0.00 0.00 0.00 89 1010.6
20260504190006 16 242 0.0 0.0 0.00 0.00 0.00 88 1010.6
20260504184506 17 242 0.0 0.0 0.00 0.00 0.00 87 1010.4
20260504183006 17 242 0.0 0.0 0.00 0.00 0.00 87 1010.5
20260504181505 17 242 0.0 0.0 0.00 0.00 0.00 86 1010.5
20260504180004 17 242 0.0 0.0 0.00 0.00 0.00 86 1010.4
20260504174504 17 242 0.0 0.0 0.00 0.00 0.00 86 1010.4
20260504173003 17 329 0.0 0.0 0.00 0.00 0.00 85 1010.4
20260504171507 17 329 0.0 0.0 0.00 0.00 0.00 84 1010.2